[[{"header":{"parameterUnit":"m.s-1","parameterCategory":1,"la1":30.2991,"la2":30.254,"lo1":-89.0895,"lo2":-89.0444,"dy":0.0017,"dx":0.0017,"nx":28,"ny":28,"refTime":"2024-06-28T09:00:00:Z","depth":0,"parameterNumber":2,"parameterNumberName":"U-component_of_WINDS"},"data":[0,0,0,0,0,0,0,0,0,0,0,0,0,0,0,0,0,0,0,0,0,0,0,0,0,0,0,0,0,0,0,0,0,0,0,0,0,0,0,0,0,0,0,0,0,0,0,0,0,0,0,0,0,0,0,0,0,0,5.4691,5.4692,0,5.4732,5.4732,5.4733,5.4601,5.4597,5.4593,5.4589,5.4631,5.4636,5.464,0,0,0,0,0,0,0,0,0,0,0,0,0,5.4498,5.4503,5.4691,5.4692,5.4692,5.4732,5.4732,5.4733,5.4602,5.4597,5.4592,5.4588,5.4629,5.4635,5.4641,0,0,0,0,0,0,0,0,0,0,0,0,0,5.4565,5.4504,5.4691,5.4632,5.4627,5.4731,5.4732,5.4733,5.4603,5.4597,5.4591,5.4585,5.4627,5.4634,5.4642,5.4806,0,0,5.4664,5.4667,0,0,0,0,0,0,0,0,5.4561,5.4572,5.464,5.4636,5.4631,5.4655,5.4679,5.4757,5.4604,5.4612,5.4589,5.4582,5.4644,5.4649,5.467,5.4808,5.4809,5.4664,5.4669,5.4672,5.4674,0,0,0,0,0,0,0,5.4557,5.457,5.4707,5.4641,5.4635,5.4602,5.4605,5.4693,5.4661,5.4611,5.4601,5.4608,5.464,5.4663,5.467,5.481,5.4664,5.4671,5.4675,5.4678,5.5079,5.5085,0,0,0,0,0,0,5.456,5.4567,5.4706,5.4708,5.4581,5.4611,5.4614,5.4653,5.466,5.4655,5.4613,5.4602,5.4654,5.4662,5.4671,5.4859,5.4672,5.4679,5.4683,5.5073,5.508,5.5087,0,0,0,0,0,0,5.4557,5.4574,5.4704,5.4635,5.4649,5.462,5.4666,5.4657,5.468,5.4661,5.4655,5.4643,5.465,5.4661,5.4772,5.4859,5.4682,5.4688,5.5065,5.5075,5.5084,5.524,0,0,0,0,0,0,5.4552,5.4573,5.4636,5.4637,5.4653,5.4806,5.4671,5.4662,5.4693,5.4679,5.4687,5.4683,5.4646,5.4762,5.4779,5.4866,5.4694,5.5057,5.5069,5.5081,5.5227,5.5254,5.5277,0,0,0,0,0,5.4545,5.468,5.464,5.4658,5.4731,5.4811,5.482,5.4774,5.4701,5.4763,5.475,5.4683,5.4848,5.4774,5.4793,5.4883,5.5051,5.5066,5.508,5.5216,5.5249,5.5276,0,0,0,0,0,0,5.4691,5.4679,5.4635,5.4774,5.4794,5.4789,5.4866,5.4811,5.4853,5.4838,5.4779,5.4782,5.4903,5.4904,5.4823,5.504,5.4937,5.4955,5.5034,5.5065,5.5089,5.5085,5.47,0,0,0,0,0,5.4739,5.4805,5.4791,5.4915,5.4928,5.4896,5.4929,5.4891,5.491,5.4918,5.4913,5.4934,5.4989,5.5028,5.5079,5.5228,5.5225,5.5298,5.5323,5.5344,5.536,5.5434,5.5465,5.5134,5.5134,5.5133,0,0,5.484,5.4841,5.4887,5.4945,5.4956,5.5024,5.4904,5.4982,5.5032,5.493,5.5033,5.5031,5.505,5.5179,5.5236,5.5184,5.5451,5.5362,5.5378,5.5383,5.5452,5.5483,5.5511,5.5143,5.5142,5.514,0,0,5.5056,5.5066,5.5168,5.5181,5.5199,5.5176,5.5201,5.5204,5.5197,5.53,5.5224,5.5282,5.5381,5.5396,5.5417,5.5636,5.5575,5.5655,5.5784,5.5857,5.5883,5.5906,5.598,5.6008,5.5671,5.5672,5.5672,0,5.5179,5.5279,5.5228,5.531,5.5336,5.5247,5.5348,5.5364,5.5398,5.5417,5.5359,5.5478,5.5485,5.5614,5.5667,5.5689,5.5713,5.5652,5.5884,5.5906,5.5926,5.5997,5.6025,5.5681,5.568,5.5679,5.5678,0,5.5426,5.5497,5.5577,5.561,5.5646,5.5738,5.5699,5.5741,5.57,5.5683,5.5787,5.5792,5.584,5.5869,5.5831,5.5993,5.5959,5.5894,5.5788,5.5968,5.6033,5.606,5.5694,5.5691,5.5688,5.5686,0,0,5.5736,5.5738,5.5768,5.578,5.5792,5.5845,5.5932,5.5978,5.6013,5.604,5.6109,5.6193,5.6131,5.6155,5.6118,5.6183,5.6351,5.6108,5.6107,5.615,5.6525,5.6572,5.6604,5.6312,5.6317,5.6321,5.6522,0,5.5946,5.6093,5.6048,5.6196,5.6258,5.6173,5.6248,5.6263,5.6249,5.6299,5.6284,5.6343,5.6259,5.6272,5.6332,5.6318,5.6425,5.6303,5.6373,5.6376,5.6367,5.6638,5.6689,5.6878,5.6547,5.6552,5.6555,0,5.6211,5.6245,5.6399,5.6396,5.6421,5.6489,5.6525,5.6576,5.659,5.6575,5.66,5.6549,5.6632,5.6528,5.664,5.6558,5.6584,5.6581,5.6587,5.6589,5.6474,5.6644,5.6938,5.6965,5.6595,5.6592,5.6589,0,5.6416,5.6501,5.6603,5.6616,5.6618,5.6667,5.667,5.6678,5.6707,5.674,5.6757,5.68,5.6822,5.6856,5.6816,5.6745,5.6933,5.6827,5.692,5.6921,5.6961,5.6959,5.726,5.6985,5.6984,5.6984,5.6983,0,5.6653,5.6749,5.6694,5.6757,5.6861,5.6808,5.6913,5.6906,5.6914,5.6972,5.6902,5.6959,5.6904,5.6955,5.6926,5.702,5.7032,5.7021,5.7011,5.7025,5.7026,5.7039,5.7023,5.6991,5.699,5.6988,5.6987,0,5.6899,5.6866,5.6971,5.6962,5.6962,5.704,5.7032,5.7088,5.7069,5.7143,5.7158,5.7127,5.7183,5.7147,5.7205,5.7184,5.7307,5.7281,5.7302,5.7293,5.7387,5.7377,5.7704,5.7743,5.7447,5.7449,5.7452,0,5.7051,5.7122,5.7121,5.7154,5.7161,5.7217,5.7245,5.7196,5.7228,5.7248,5.7301,5.7351,5.7388,5.7481,5.7463,5.7506,5.7478,5.759,5.7484,5.7494,5.7475,5.7469,5.7475,5.761,5.7614,5.7617,5.7619,0,5.7322,5.7301,5.7345,5.7383,5.7418,5.7446,5.7468,5.7499,5.7449,5.7489,5.7544,5.7573,5.763,5.7679,5.7714,5.7716,5.7659,5.7653,5.7675,5.7689,5.7696,5.7689,5.7356,5.7645,5.7642,5.764,5.7639,5.7638,5.7523,5.758,5.7587,5.7637,5.7648,5.7669,5.772,5.7706,5.7751,5.7792,5.7761,5.7826,5.7835,5.7876,5.7885,5.7935,5.7889,5.7924,5.7932,5.794,5.7951,5.7691,5.7942,5.7941,5.794,5.7939,5.7939,0,5.7786,5.7786,5.7832,5.7863,5.7902,5.7845,5.7865,5.7901,5.7959,5.7973,5.8009,5.8071,5.8118,5.8104,5.8145,5.8187,5.8161,5.8199,5.8194,5.8194,5.7992,5.7965,5.8219,5.8219,5.8219,5.8219,5.8219,5.8218,5.7928,5.8021,5.8001,5.8098,5.8097,5.8159,5.8175,5.8193,5.8203,5.8275,5.8313,5.8303,5.8304,5.8344,5.8384,5.8378,5.8395,5.8442,5.8427,5.8237,5.8209,5.8183,5.8157,5.8447,5.8447,5.8624,5.8626,5.8627]},{"header":{"parameterUnit":"m.s-1","parameterCategory":1,"la1":30.2991,"la2":30.254,"lo1":-89.0895,"lo2":-89.0444,"dy":0.0017,"dx":0.0017,"nx":28,"ny":28,"refTime":"2024-06-28T09:00:00:Z","depth":0,"parameterNumber":3,"parameterNumberName":"V-component_of_WINDS"},"data":[0,0,0,0,0,0,0,0,0,0,0,0,0,0,0,0,0,0,0,0,0,0,0,0,0,0,0,0,0,0,0,0,0,0,0,0,0,0,0,0,0,0,0,0,0,0,0,0,0,0,0,0,0,0,0,0,0,0,3.0819,3.0821,0,3.098,3.0982,3.0984,3.0996,3.0994,3.0993,3.0991,3.116,3.1166,3.1173,0,0,0,0,0,0,0,0,0,0,0,0,0,3.0523,3.0528,3.0819,3.0821,3.0823,3.098,3.0982,3.0985,3.0996,3.0994,3.0992,3.099,3.1158,3.1166,3.1173,0,0,0,0,0,0,0,0,0,0,0,0,0,3.0665,3.053,3.0818,3.0847,3.0852,3.098,3.0982,3.0985,3.0997,3.0994,3.0991,3.0989,3.1156,3.1165,3.1174,3.1285,0,0,3.1202,3.1206,0,0,0,0,0,0,0,0,3.0656,3.0675,3.0841,3.0846,3.0851,3.0965,3.094,3.1086,3.0998,3.0942,3.0991,3.0988,3.1098,3.1112,3.1148,3.1293,3.13,3.1203,3.1209,3.1213,3.1216,0,0,0,0,0,0,0,3.0647,3.0669,3.0883,3.0844,3.0849,3.0853,3.087,3.0968,3.1033,3.0947,3.0948,3.0967,3.11,3.1139,3.1152,3.1303,3.1203,3.1211,3.1217,3.1221,3.1546,3.1549,0,0,0,0,0,0,3.0631,3.066,3.0878,3.0888,3.0745,3.0861,3.088,3.0931,3.1032,3.1045,3.0969,3.0966,3.1125,3.1141,3.1158,3.1294,3.1213,3.1222,3.1227,3.1543,3.1547,3.155,0,0,0,0,0,0,3.0624,3.065,3.0871,3.0774,3.0803,3.0869,3.0926,3.0936,3.0975,3.1049,3.1061,3.0996,3.1123,3.1145,3.1253,3.13,3.1226,3.1234,3.1539,3.1544,3.1548,3.1567,0,0,0,0,0,0,3.0616,3.0648,3.069,3.0775,3.0808,3.0962,3.0929,3.0941,3.099,3.0989,3.1078,3.109,3.1123,3.1239,3.1262,3.1311,3.1241,3.1535,3.1541,3.1547,3.1562,3.1572,3.1579,0,0,0,0,0,3.0605,3.069,3.0692,3.0718,3.0862,3.0965,3.0984,3.1018,3.0994,3.1038,3.1085,3.1087,3.1291,3.125,3.1276,3.1329,3.1533,3.154,3.1546,3.1559,3.157,3.1579,0,0,0,0,0,0,3.0611,3.0702,3.0705,3.082,3.0884,3.0967,3.1023,3.1029,3.1103,3.1099,3.114,3.116,3.1266,3.1309,3.1261,3.1441,3.1409,3.1422,3.141,3.1421,3.1429,3.1417,3.1249,0,0,0,0,0,3.0625,3.07,3.0776,3.087,3.0902,3.0957,3.1003,3.1024,3.1093,3.1121,3.1176,3.1244,3.1323,3.1374,3.1451,3.1568,3.1588,3.1618,3.1626,3.1633,3.1643,3.1707,3.1721,3.1573,3.1573,3.1572,0,0,3.0656,3.0715,3.076,3.0872,3.0925,3.1002,3.098,3.1063,3.1121,3.1134,3.1238,3.1281,3.1359,3.1472,3.1524,3.151,3.1688,3.1641,3.1646,3.1653,3.1716,3.173,3.1742,3.1577,3.1576,3.1576,0,0,3.0751,3.0804,3.0887,3.0939,3.1018,3.1054,3.1074,3.1155,3.1183,3.1288,3.1299,3.1369,3.1505,3.156,3.1606,3.172,3.1725,3.1744,3.1789,3.1851,3.1862,3.1873,3.1913,3.1927,3.1754,3.1754,3.1754,0,3.078,3.0896,3.0929,3.1012,3.106,3.1074,3.1158,3.1208,3.1309,3.1343,3.1325,3.1495,3.1549,3.1674,3.1701,3.1738,3.1762,3.1734,3.1858,3.1869,3.1879,3.1918,3.1933,3.1756,3.1756,3.1756,3.1755,0,3.0927,3.1007,3.1065,3.1159,3.1215,3.1298,3.1345,3.1397,3.1413,3.145,3.1556,3.1621,3.1711,3.1742,3.1759,3.187,3.1858,3.1849,3.1818,3.1894,3.1931,3.1947,3.1758,3.1758,3.1757,3.1757,0,0,3.1031,3.1141,3.1162,3.1205,3.1292,3.1355,3.1439,3.1525,3.1569,3.1638,3.1709,3.1822,3.1813,3.1865,3.1889,3.1943,3.2028,3.1927,3.1929,3.1943,3.2153,3.2159,3.2176,3.2032,3.2035,3.2037,3.2146,0,3.1135,3.1283,3.1315,3.1443,3.1517,3.153,3.1603,3.1664,3.1701,3.177,3.1812,3.1891,3.1874,3.1905,3.196,3.2006,3.2071,3.1999,3.2099,3.2102,3.2078,3.2195,3.2203,3.2302,3.2161,3.2163,3.2165,0,3.1277,3.1347,3.1482,3.1558,3.159,3.1655,3.1735,3.1801,3.1871,3.1895,3.1951,3.1968,3.2056,3.202,3.2142,3.2092,3.2135,3.2164,3.2169,3.2179,3.2138,3.2209,3.2335,3.235,3.2189,3.2187,3.2185,0,3.1338,3.1467,3.1563,3.1599,3.1691,3.1736,3.1776,3.1844,3.1893,3.1964,3.1996,3.2077,3.2122,3.2184,3.2223,3.2193,3.2341,3.2309,3.2363,3.2362,3.2394,3.2391,3.2528,3.2422,3.2422,3.2421,3.2421,0,3.1452,3.1533,3.1591,3.1651,3.1743,3.1779,3.1869,3.1909,3.1969,3.2037,3.2054,3.2118,3.2165,3.2235,3.2266,3.2362,3.2382,3.2403,3.241,3.2402,3.2399,3.243,3.2424,3.2425,3.2424,3.2424,3.2423,0,3.1536,3.1578,3.1684,3.1761,3.1782,3.1846,3.1913,3.1972,3.2008,3.2094,3.2116,3.2174,3.2258,3.2302,3.2408,3.2428,3.2535,3.2539,3.2511,3.2514,3.2566,3.256,3.2727,3.2751,3.2629,3.263,3.2631,0,3.1605,3.1667,3.1751,3.1796,3.1837,3.1911,3.1961,3.1999,3.205,3.2134,3.2182,3.2266,3.2336,3.2469,3.2521,3.2601,3.2607,3.266,3.2619,3.2608,3.2607,3.2602,3.2609,3.2667,3.2668,3.2669,3.267,0,3.1722,3.174,3.181,3.1888,3.1946,3.2009,3.2072,3.2109,3.2157,3.2214,3.2298,3.2352,3.2458,3.2541,3.2625,3.2668,3.2677,3.2682,3.2699,3.269,3.2671,3.2681,3.253,3.2678,3.2677,3.2677,3.2676,3.2676,3.1801,3.1856,3.1923,3.2001,3.2051,3.2109,3.2167,3.221,3.2281,3.2369,3.2388,3.2477,3.2546,3.2659,3.2704,3.2775,3.2764,3.2789,3.2795,3.28,3.2802,3.266,3.2791,3.279,3.279,3.279,3.279,0,3.1918,3.1961,3.2032,3.2118,3.2179,3.2181,3.225,3.2301,3.2379,3.2441,3.2508,3.2605,3.2686,3.2744,3.2826,3.2872,3.2878,3.2892,3.2889,3.2899,3.2807,3.2784,3.2886,3.2886,3.2886,3.2886,3.2886,3.2885,3.1987,3.2081,3.2106,3.2225,3.2269,3.2355,3.2394,3.2448,3.2497,3.2604,3.267,3.2707,3.2768,3.2854,3.2928,3.2943,3.2973,3.2987,3.3002,3.2915,3.2905,3.2896,3.2874,3.2993,3.2993,3.3088,3.3088,3.3089]}]]